CZ-6A DEB, 55863

Orbit data source: Space-Track

CZ-6A DEB, 55863 is space debris in SSO originally from a launch on Fri, 11 Nov 2022 UTC launched from the Taiyaun Space Center, China (TSC). Debris objects in space refer to the collection of defunct objects orbiting the Earth. Examples of debris include non-operational satellites, rocket bodies, and fragments generated from explosions, collisions, or faulty payload assembly.

Loading next visibility...
Identifier
55863, 2022-151ZK
Orbit
SSO
Country
Flag of CNCN / PRC
Related business
Manufacturer
SAST
Mission
Spacecraft
Bus & Motor
Unknown
Mass
Unknown
Launch date (UTC)
2022-11-11 (3 years ago)
Launch vehicle
Unknown
Launch site
Taiyaun Space Center, China (TSC)
Object type
Payload
Rocket body
Debris
Shape & HBR
Unknown shape, 0.1 m
Radar Cross Section
Small (<0.1 m²)

Expand to show TLE details & history
Last TLE update: 20 hours ago

TLE from 20 hours ago
0 CZ-6A DEB
1 55863U 22151ZK  25353.47031106  .00001630  00000-0  86596-3 0  9995
2 55863  98.8223 349.5929 0054678 121.6424 239.0100 14.14154655153237
Epoch: 2025-12-19T11:17Z
TLE epoch observation values (Epoch: 2025-12-19T11:17:14.875Z)
Latitude
0.00004°
Longitude
91.96991°
Altitude
868.59 km
Speed
7.408 km/s
True Right ascension
23h 18m 22s
True Declination
0° 00' 00"
Sunlit
Object was in daylight at epoch
Visualization orbit readout
Latitude
Unknown
Longitude
Unknown
Altitude
Unknown
Speed
Unknown
Apparent Right ascension
Unknown
Apparent Declination
Unknown
Sunlit
N/A
Visualization observer readout
Local Sidereal Time
06:42:02
Azimuth
Unknown
Elevation
Unknown
Doppler factor
Unknown
Orbital elements
Apogee altitude
881.841 km
Perigee altitude
802.881 km
Semi-major axis
7,220.498 km
Eccentricity
0.00547
Inclination
98.8223°
RAAN
349.5929°
Arg. of periapsis
121.6424°
True anomaly
238.47477°
Mean anomaly
239.01°
Eccentric anomaly
238.74219°
Mean motion
3.53747 °/min
Orbital period
101.77 mins
BSTAR
0.00086596
Loading maneuver chart data...
Computing Atmospheric mass density...
Loading historical data...
Loading historical data...
Loading historical data...
Loading historical data...
Loading historical data...
Loading historical data...
Loading historical data...

Documentation

Showing up to 5 results
|